Williston, ND

9:48 AM CDT on March 23, 2017 (GMT -0500)
Sloulin International

Weather History for KISN - April, 2013

Change the Weather History Date:

Friday, April 12, 2013

  Actual Average Record
Temperature  
Mean Temperature 29 °F 42 °F  
Max Temperature 37 °F 56 °F 80 °F (2003)
Min Temperature 20 °F 28 °F 11 °F (1909)
Degree Days  
Heating Degree Days 36 23  
Month to date heating degree days 400 305  
Since 1 July heating degree days 8438 8180  
Cooling Degree Days 0 0  
Month to date cooling degree days 0 0  
Year to date cooling degree days 0 0  
Moisture  
Dew Point 26 °F    
Average Humidity 85    
Maximum Humidity 100    
Minimum Humidity 69    
Precipitation  
Precipitation T in 0.03 in 1.10 in (1972)
Month to date precipitation 0.13 0.34  
Year to date precipitation 2.12 2.03  
Snow  
Snow T in - - ()
Month to date snowfall 1.0  
Snow Depth 0.00 in    
Sea Level Pressure  
Sea Level Pressure 29.99 in    
Wind  
Wind Speed 5 mph (NNE)    
Max Wind Speed 15 mph    
Max Gust Speed 18 mph    
Visibility 9 miles    
Events      
T = Trace of Precipitation, MM = Missing Value Source: NWS Daily Summary

Daily Weather History Graph

Daily Weather History Graph

Search for Another Location

Airport or City:

Trip Planner

Search our weather history database for the weather conditions in past years. The results will help you decide how hot, cold, wet, or windy it might be!

Date:

Astronomy

Apr. 12, 2013 Rise Set
Actual Time 7:10 AM CDT 8:41 PM CDT
Civil Twilight 6:37 AM CDT 9:13 PM CDT
Nautical Twilight 5:58 AM CDT 9:53 PM CDT
Astronomical Twilight 5:15 AM CDT 10:36 PM CDT
Moon 8:11 AM CDT (4/12) 11:26 PM CDT (4/12)
Length of Visible Light 14h 36m
Length of Day
13h 31m
Waxing Crescent, 5% of the Moon is Illuminated
Apr 12
Waxing Crescent
Apr 18
First Quarter
Apr 25
Full
May 2
Last Quarter
May 9
New

Hourly Weather History & Observations

Time (CDT) Temp. Windchill Dew Point Humidity Pressure Visibility Wind Dir Wind Speed Gust Speed Precip Events Conditions
12:52 AM 30.9 °F 24.3 °F 23.0 °F 72% 29.96 in 10.0 mi ESE 6.9 mph - N/A   Overcast
1:52 AM 30.0 °F 23.2 °F 21.9 °F 72% 29.97 in 10.0 mi SE 6.9 mph - N/A   Overcast
2:52 AM 30.0 °F 25.2 °F 21.9 °F 72% 29.98 in 10.0 mi SE 4.6 mph - N/A   Overcast
3:52 AM 30.0 °F 25.2 °F 21.9 °F 72% 29.97 in 10.0 mi ESE 4.6 mph - N/A   Overcast
4:52 AM 28.9 °F 25.2 °F 23.0 °F 78% 29.97 in 10.0 mi ESE 3.5 mph - N/A   Overcast
5:52 AM 30.0 °F - 24.1 °F 79% 29.97 in 10.0 mi Calm Calm - N/A   Overcast
6:21 AM 30.2 °F 26.7 °F 24.8 °F 80% 29.90 in 10.0 mi East 3.5 mph - N/A   Overcast
6:52 AM 30.0 °F - 24.1 °F 79% 29.97 in 10.0 mi Calm Calm - N/A   Overcast
7:52 AM 30.0 °F - 25.0 °F 82% 29.98 in 10.0 mi Calm Calm - N/A   Overcast
8:52 AM 30.0 °F - 25.0 °F 82% 29.99 in 10.0 mi Calm Calm - N/A   Overcast
9:52 AM 30.2 °F 23.4 °F 24.8 °F 80% 29.94 in 10.0 mi ESE 6.9 mph - N/A   Overcast
10:52 AM 30.0 °F - 25.0 °F 82% 30.02 in 10.0 mi Calm Calm - N/A   Overcast
11:52 AM 30.9 °F 27.5 °F 27.0 °F 85% 30.03 in 6.0 mi Variable 3.5 mph - 0.00 in   Overcast
12:08 PM 32.0 °F 28.7 °F 26.6 °F 80% 29.96 in 7.0 mi SSW 3.5 mph - N/A   Overcast
12:17 PM 32.0 °F - 26.6 °F 80% 29.96 in 6.0 mi Calm Calm - N/A   Haze
12:27 PM 33.8 °F - 26.6 °F 75% 29.96 in 6.0 mi Calm Calm - N/A   Haze
12:52 PM 33.1 °F - 27.0 °F 78% 30.03 in 9.0 mi Calm Calm - N/A   Overcast
12:58 PM 33.8 °F 30.8 °F 28.4 °F 81% 29.96 in 7.0 mi Variable 3.5 mph - N/A   Overcast
1:52 PM 36.0 °F 29.6 °F 28.9 °F 76% 30.02 in 10.0 mi NW 8.1 mph - 0.00 in   Overcast
2:52 PM 36.0 °F 28.0 °F 28.0 °F 73% 30.02 in 10.0 mi North 11.5 mph - N/A   Overcast
3:52 PM 35.1 °F 27.4 °F 28.9 °F 78% 30.03 in 10.0 mi NNW 10.4 mph - N/A   Overcast
4:10 PM 33.8 °F 25.8 °F 28.4 °F 81% 29.96 in 10.0 mi NNW 10.4 mph - N/A   Overcast
4:46 PM 35.6 °F 27.1 °F 28.4 °F 75% 29.95 in 10.0 mi North 12.7 mph - N/A   Overcast
4:52 PM 35.1 °F 27.9 °F 28.9 °F 78% 30.02 in 10.0 mi North 9.2 mph - N/A   Overcast
5:52 PM 36.0 °F 29.0 °F 28.0 °F 73% 30.01 in 10.0 mi NNW 9.2 mph - N/A   Overcast
6:52 PM 34.0 °F 27.2 °F 28.0 °F 79% 30.02 in 10.0 mi NNW 8.1 mph - N/A   Overcast
7:52 PM 34.0 °F 27.2 °F 28.9 °F 82% 30.01 in 10.0 mi NNW 8.1 mph - N/A   Overcast
8:52 PM 33.1 °F 27.7 °F 28.9 °F 85% 30.01 in 10.0 mi NNE 5.8 mph - N/A   Overcast
9:07 PM 33.8 °F 29.6 °F 28.4 °F 81% 29.93 in 10.0 mi NNE 4.6 mph - N/A   Overcast
9:52 PM 30.0 °F 25.2 °F 28.0 °F 92% 30.01 in 10.0 mi North 4.6 mph - N/A   Mostly Cloudy
10:52 PM 25.0 °F 20.7 °F 25.0 °F 100% 30.01 in 10.0 mi NNE 3.5 mph - N/A   Clear
11:52 PM 21.9 °F 17.2 °F 21.0 °F 96% 30.00 in 7.0 mi WNW 3.5 mph - N/A   Clear